Rochester, Indiana, United States (46975)
Lat: 41.06N, Lon: 86.22W
Wx Zone: INZ015
Local Info
Past Weather Observations for Today

NOTE: This archive is for the closest National Weather Service station to Rochester. Information may differ from the station used for current weather conditions.

Click here for Long-term Archive

Time Weather Temperature Dewpoint Humidity Pressure Winds Precip Visibility
22:55
Clear
70°F / 21°C 70°F / 21°C 100% 30.18 in
(1022 mb)
E 3.5 mph
(E 6 kph)
- 10SM
22:35
Clear
70°F / 21°C 70°F / 21°C 100% 30.18 in
(1022 mb)
Calm - 10SM
22:15
Clear
70°F / 21°C 70°F / 21°C 100% 30.18 in
(1022 mb)
Calm - 10SM
21:55
Clear
70°F / 21°C 70°F / 21°C 100% 30.18 in
(1022 mb)
Calm - 10SM
21:15
Clear
72°F / 22°C 72°F / 22°C 100% 30.21 in
(1023 mb)
Calm - 10SM
20:55
Clear
72°F / 22°C 72°F / 22°C 100% 30.21 in
(1023 mb)
Calm - 10SM
20:35
Clear
72°F / 22°C 72°F / 22°C 100% 30.21 in
(1023 mb)
Calm - 10SM
20:15
Clear
73°F / 23°C 72°F / 22°C 94% 30.21 in
(1023 mb)
Calm - 10SM
19:55
Clear
73°F / 23°C 72°F / 22°C 94% 30.21 in
(1023 mb)
Calm - 7SM
18:35
Clear
79°F / 26°C 73°F / 23°C 84% 30.18 in
(1022 mb)
Calm - 10SM
18:15
Clear
79°F / 26°C 73°F / 23°C 84% 30.18 in
(1022 mb)
Calm - 10SM
17:55
Clear
79°F / 26°C 73°F / 23°C 84% 30.18 in
(1022 mb)
Calm - 10SM
17:35
Clear
81°F / 27°C 73°F / 23°C 79% 30.21 in
(1023 mb)
Calm - 10SM
17:15
Clear
81°F / 27°C 73°F / 23°C 79% 30.21 in
(1023 mb)
Calm - 10SM
16:55
Partly Cloudy
81°F / 27°C 73°F / 23°C 79% 30.21 in
(1023 mb)
E 4.6 mph
(E 7 kph)
- 10SM
16:35
Partly Cloudy
81°F / 27°C 72°F / 22°C 74% 30.21 in
(1023 mb)
ESE 3.5 mph
(ESE 6 kph)
- 10SM
16:15
Clear
81°F / 27°C 73°F / 23°C 79% 30.21 in
(1023 mb)
SE 3.5 mph
(SE 6 kph)
- 10SM
15:55
Clear
81°F / 27°C 72°F / 22°C 74% 30.21 in
(1023 mb)
ESE 5.8 mph
(ESE 9 kph)
- 10SM
15:35
Clear
84°F / 29°C 73°F / 23°C 70% 30.21 in
(1023 mb)
E 6.9 mph
(E 11 kph)
- 10SM
15:15
Clear
82°F / 28°C 73°F / 23°C 74% 30.21 in
(1023 mb)
SE 4.6 mph
(SE 7 kph)
- 10SM
14:55
Partly Cloudy
82°F / 28°C 73°F / 23°C 74% 30.21 in
(1023 mb)
SE 5.8 mph
(SE 9 kph)
- 10SM
14:35
Partly Cloudy
82°F / 28°C 73°F / 23°C 74% 30.24 in
(1024 mb)
E 5.8 mph
(E 9 kph)
- 10SM
14:15
Partly Cloudy
82°F / 28°C 72°F / 22°C 70% 30.24 in
(1024 mb)
SE 3.5 mph
(SE 6 kph)
- 10SM
13:55
Partly Cloudy
84°F / 29°C 73°F / 23°C 70% 30.24 in
(1024 mb)
SSE 3.5 mph
(SSE 6 kph)
- 10SM
13:35
Partly Cloudy
82°F / 28°C 73°F / 23°C 74% 30.27 in
(1025 mb)
SE 4.6 mph
(SE 7 kph)
- 10SM
13:15
Mostly Cloudy
82°F / 28°C 73°F / 23°C 74% 30.27 in
(1025 mb)
E 5.8 mph
(E 9 kph)
- 10SM
12:55
Overcast
84°F / 29°C 73°F / 23°C 70% 30.27 in
(1025 mb)
SSE 3.5 mph
(SSE 6 kph)
- 10SM
12:35
Mostly Cloudy
82°F / 28°C 73°F / 23°C 74% 30.27 in
(1025 mb)
SE 5.8 mph
(SE 9 kph)
- 10SM
12:15
Partly Cloudy
82°F / 28°C 73°F / 23°C 74% 30.27 in
(1025 mb)
E 4.6 mph
(E 7 kph)
- 10SM
11:55
Partly Cloudy
81°F / 27°C 73°F / 23°C 79% 30.27 in
(1025 mb)
ESE 4.6 mph
(ESE 7 kph)
- 10SM
11:35
Partly Cloudy
81°F / 27°C 73°F / 23°C 79% 30.27 in
(1025 mb)
E 6.9 mph
(E 11 kph)
- 10SM
11:15
Partly Cloudy
81°F / 27°C 73°F / 23°C 79% 30.27 in
(1025 mb)
Calm - 10SM
10:55
Clear
79°F / 26°C 73°F / 23°C 84% 30.27 in
(1025 mb)
SE 4.6 mph
(SE 7 kph)
- 10SM
10:15
Partly Cloudy
77°F / 25°C 73°F / 23°C 89% 30.27 in
(1025 mb)
ESE 5.8 mph
(ESE 9 kph)
- 10SM
09:55
Partly Cloudy
77°F / 25°C 73°F / 23°C 89% 30.27 in
(1025 mb)
E 9.2 mph
(E 15 kph)
- 10SM
08:35
Clear
73°F / 23°C 72°F / 22°C 94% 30.27 in
(1025 mb)
E 8.1 mph
(E 13 kph)
- 10SM
08:15
Clear
72°F / 22°C 72°F / 22°C 100% 30.27 in
(1025 mb)
E 8.1 mph
(E 13 kph)
- 10SM
07:55
Clear
72°F / 22°C 72°F / 22°C 100% 30.27 in
(1025 mb)
E 4.6 mph
(E 7 kph)
- 10SM
07:35
Clear
70°F / 21°C 70°F / 21°C 100% 30.24 in
(1024 mb)
E 4.6 mph
(E 7 kph)
- 10SM
07:15
Clear
68°F / 20°C 68°F / 20°C 100% 30.24 in
(1024 mb)
E 4.6 mph
(E 7 kph)
- 10SM
06:55
Clear
68°F / 20°C 68°F / 20°C 100% 30.24 in
(1024 mb)
ENE 5.8 mph
(ENE 9 kph)
- 10SM
05:35
Clear
64°F / 18°C 64°F / 18°C 100% 30.21 in
(1023 mb)
ENE 3.5 mph
(ENE 6 kph)
- 7SM
05:15
Clear
Fog And Mist
64°F / 18°C 64°F / 18°C 100% 30.21 in
(1023 mb)
Calm - 5SM
04:55
Clear
Fog And Mist
64°F / 18°C 64°F / 18°C 100% 30.21 in
(1023 mb)
Calm - 2SM
04:35
Clear
Fog And Mist
64°F / 18°C 64°F / 18°C 100% 30.21 in
(1023 mb)
Calm - 3SM
04:15
Clear
Fog And Mist
64°F / 18°C 64°F / 18°C 100% 30.21 in
(1023 mb)
Calm - 2 1/2SM
03:55
Clear
Fog And Mist
66°F / 19°C 66°F / 19°C 100% 30.21 in
(1023 mb)
Calm - 5SM
02:55
Partly Cloudy
Fog And Mist
66°F / 19°C 66°F / 19°C 100% 30.21 in
(1023 mb)
Calm - 4SM
02:35
Overcast
Fog
66°F / 19°C 66°F / 19°C 100% 30.21 in
(1023 mb)
Calm - 1/2SM
02:15
Overcast
Fog
66°F / 19°C 66°F / 19°C 100% 30.21 in
(1023 mb)
Calm - 1/2SM
01:55
Overcast
Fog
66°F / 19°C 66°F / 19°C 100% 30.21 in
(1023 mb)
Calm - 1/2SM
01:35
Overcast
Fog
66°F / 19°C 66°F / 19°C 100% 30.21 in
(1023 mb)
Calm - 1/2SM
01:15
Overcast
Fog
66°F / 19°C 66°F / 19°C 100% 30.24 in
(1024 mb)
Calm - 1/2SM
00:55
Partly Cloudy
Fog And Mist
68°F / 20°C 68°F / 20°C 100% 30.24 in
(1024 mb)
Calm - 1 3/4SM
00:35
Mostly Cloudy
Fog And Mist
68°F / 20°C 68°F / 20°C 100% 30.24 in
(1024 mb)
Calm - 1 3/4SM
00:15
Overcast
Fog And Mist
66°F / 19°C 66°F / 19°C 100% 30.24 in
(1024 mb)
Calm - 1SM
Time Weather Temperature Dewpoint Humidity Pressure Winds Precip Visibility


Weather for websites

WeatherForYou.com, LLC is not responsible for any damages or problems caused by this service. Current weather conditions are obtained from the closest station including government and personal stations which may have varying degrees of accuracy. Weather forecasts are derived from the NOAA NDFD. Like all things, this site belongs to Jesus Christ... He just trusts us to maintain it. If you have any questions or comments email webmaster@weatherforyou.com

Copyright © 2016, WeatherForYou.com LLC. All rights reserved.